CANAVERAL EAST 120NM East of Cape Canaveral (41010)

Conditions for Sunday

Daily
Weekly
Monthly
Marine Data Graph

Marine & Boating Location Search

Enter a coastal zip code for marine weather.

General Information

Location: 28.903 North -78.464 West
Buoy Type: 3-meter discus buoy
Buoy Hull: 3D26
Payload: ARES payload
Owned by: NDBC
Windspeed: Measured by obtained from anemometer
Sea Surface: Measured by Intake

Weather and Wave Data

Time Temp Humidity Wind Dominant Wave Wind Wave Wave Swell Pressure
  Air
(°F)
Water
(°F)
  Dir Speed
(kts)
Speed
(mph)
Period
(sec)
Height
(ft)
Range
(ft)
Period
(sec)
Height
(ft)
Range
(ft)
Period
(sec)
Height
(ft)
Range
(ft)
Atmo.
(in)
Tend.
(in)
20:20 85 86 68 South 7.8 8.9 - - - - - - 30.10 -
20:30 85 86 67 South 7.8 8.9 - - - - - - 30.09 -
20:40 85 86 68 South 9.7 11.2 - - - - - - 30.09 -
20:50 85 86 69 South 9.7 11.2 7 2.30 exactly 2.3 4 1.64 0.82 - 2.46 7 1.64 0.82 - 2.46 30.10 -
21:00 85 86 68 South 11.7 13.4 - - - - - - 30.10 +0.02
21:10 85 86 69 South 11.7 13.4 - - - - - - 30.10 -
21:20 85 86 71 South 9.7 11.2 - - - - - - 30.11 -
21:40 85 86 68 South 9.7 11.2 - - - - - - 30.11 -
21:50 85 86 68 South 9.7 11.2 7 2.30 exactly 2.3 4 1.64 0.82 - 2.46 7 1.64 0.82 - 2.46 30.11 -
22:10 85 86 69 South 7.8 8.9 - - - - - - 30.11 -
22:30 85 86 69 South 7.8 8.9 - - - - - - 30.12 -
22:40 85 86 69 South 7.8 8.9 - - - - - - 30.12 -
22:50 85 86 71 South 7.8 8.9 10 2.30 exactly 2.3 4 1.64 0.82 - 2.46 10 1.64 0.82 - 2.46 30.12 -
23:10 85 86 71 South 7.8 8.9 - - - - - - 30.11 -
23:20 85 86 70 South 7.8 8.9 - - - - - - 30.11 -
23:30 85 86 70 South 9.7 11.2 - - - - - - 30.12 -
23:40 85 86 69 South 9.7 11.2 - - - - - - 30.12 -
23:50 85 86 69 South 9.7 11.2 7 2.30 exactly 2.3 4 1.64 0.82 - 2.46 7 1.64 0.82 - 2.46 30.12 -
00:20 85 86 70 South 11.7 13.4 - - - - - - 30.12 -
00:30 85 86 71 South 11.7 13.4 - - - - - - 30.12 -
00:50 85 86 72 South 11.7 13.4 6 2.30 exactly 2.3 5 1.64 0.82 - 2.46 6 1.64 0.82 - 2.46 30.12 -
01:00 85 86 72 SSW 11.7 13.4 - - - - - - 30.11 -
01:10 85 86 71 South 11.7 13.4 - - - - - - 30.11 -
01:20 85 86 72 South 9.7 11.2 - - - - - - 30.10 -
01:30 85
-
72 South 9.7 11.2 - - - - - - 30.11 -
01:40 85 86 71 South 9.7 11.2 - - - - - - 30.10 -
01:50 85 86 71 South 9.7 11.2 9 2.30 exactly 2.3 4 1.64 0.82 - 2.46 9 1.64 0.82 - 2.46 30.10 -
02:00 85 86 72 South 9.7 11.2 - - - - - - 30.10 -0.02
02:10 85 86 71 South 9.7 11.2 - - - - - - 30.10 -
02:20 85 86 71 South 11.7 13.4 - - - - - - 30.09 -
02:30 85 86 71 South 11.7 13.4 - - - - - - 30.09 -
02:40 85 86 70 South 11.7 13.4 - - - - - - 30.09 -
03:00 85
-
71 South 11.7 13.4 - - - - - - 30.09 -0.03
03:10 85 86 71 SSW 11.7 13.4 - - - - - - 30.09 -
03:20 85 86 70 SSW 11.7 13.4 - - - - - - 30.09 -
03:40 85 86 69 South 11.7 13.4 - - - - - - 30.09 -
04:10 84 86 71 SSW 11.7 13.4 - - - - - - 30.09 -
04:20 84 86 72 South 11.7 13.4 - - - - - - 30.09 -
04:30 84 86 72 South 9.7 11.2 - - - - - - 30.09 -
04:40 84 86 72 South 11.7 13.4 - - - - - - 30.09 -
04:50 84 86 72 South 11.7 13.4 9 2.30 exactly 2.3 3 1.64 0.82 - 2.46 9 1.64 0.82 - 2.46 30.09 -
05:10 84 86 74 SSW 9.7 11.2 - - - - - - 30.09 -
05:30 84 86 72 SSW 9.7 11.2 - - - - - - 30.09 -
05:40 84 86 72 SSW 9.7 11.2 - - - - - - 30.09 -
06:30 84 86 70 SSW 9.7 11.2 - - - - - - 30.10 -
06:40 84 86 69 SW 9.7 11.2 - - - - - - 30.10 -
07:00 84 86 72 SW 9.7 11.2 - - - - - - 30.10 +0.01
07:20 84 86 70 SW 9.7 11.2 - - - - - - 30.11 -
07:30 85 86 68 SW 9.7 11.2 - - - - - - 30.11 -
07:40 85 86 68 SW 9.7 11.2 - - - - - - 30.11 -
07:50 85 86 68 SW 9.7 11.2 9 2.62 exactly 2.6 4 1.64 0.82 - 2.46 9 1.64 0.82 - 2.46 30.11 -
08:10 85 85 67 SW 9.7 11.2 - - - - - - 30.11 -
08:20 85 85 67 SW 9.7 11.2 - - - - - - 30.11 -
08:30 85 85 67 SW 9.7 11.2 - - - - - - 30.12 -
08:40 85 85 66 SW 9.7 11.2 - - - - - - 30.12 -
09:10 85 85 65 SW 7.8 8.9 - - - - - - 30.12 -
09:20 85 85 66 SW 7.8 8.9 - - - - - - 30.12 -
09:30 85 85 64 SW 9.7 11.2 - - - - - - 30.12 -
09:50 85 86 64 SW 7.8 8.9 9 2.62 exactly 2.6 4 1.64 0.82 - 2.46 9 1.64 0.82 - 2.46 30.13 -
10:10 85 86 65 SW 7.8 8.9 - - - - - - 30.13 -
10:20 85 86 64 SW 5.8 6.7 - - - - - - 30.13 -
10:30 85
-
64 SW 5.8 6.7 - - - - - - 30.13 -
10:40 85 86 65 SW 5.8 6.7 - - - - - - 30.13 -
11:00 85 86 64 SW 5.8 6.7 - - - - - - 30.14 +0.02
11:20 85 86 64 SW 5.8 6.7 - - - - - - 30.14 -
11:30 85 86 65 WSW 5.8 6.7 - - - - - - 30.14 -
11:40 85 86 65 WSW 5.8 6.7 - - - - - - 30.14 -
11:50 85 86 65 SW 5.8 6.7 8 2.30 exactly 2.3 4 1.64 0.82 - 2.46 8 1.64 0.82 - 2.46 30.15 -
12:10 86 86 62 SW 5.8 6.7 - - - - - - 30.15 -
12:20 86 86 62 SW 5.8 6.7 - - - - - - 30.15 -
12:30 86 86 61 WSW 3.9 4.5 - - - - - - 30.15 -
12:40 86 86 62 SW 3.9 4.5 - - - - - - 30.15 -
12:50 86 86 61 WSW 5.8 6.7 9 2.30 exactly 2.3 4 1.64 0.82 - 2.46 9 1.64 0.82 - 2.46 30.15 -
13:10 86 86 61 WSW 5.8 6.7 - - - - - - 30.14 -
13:30 86 86 62 WSW 3.9 4.5 - - - - - - 30.14 -
13:40 86 86 63 SW 3.9 4.5 - - - - - - 30.14 -
14:00 86 86 62 SW 3.9 4.5 - - - - - - 30.14 +0.01
14:20 86 86 62 WSW 3.9 4.5 - - - - - - 30.14 -
14:40 86 86 60 WSW 3.9 4.5 - - - - - - 30.14 -
14:50 87 86 58 SW 3.9 4.5 9 2.30 exactly 2.3 4 1.64 0.82 - 2.46 9 1.64 0.82 - 2.46 30.14 -
15:10 86 86 61 West 3.9 4.5 - - - - - - 30.13 -
15:20 87 86 59 West 3.9 4.5 - - - - - - 30.13 -
15:30 86 86 60 West 3.9 4.5 - - - - - - 30.13 -
15:40 87 86 57 WNW 1.9 2.2 - - - - - - 30.12 -
15:50 87 86 58 West 1.9 2.2 7 2.30 exactly 2.3 4 1.64 0.82 - 2.46 7 1.64 0.82 - 2.46 30.12 -
16:10 87 87 57 WNW 1.9 2.2 - - - - - - 30.12 -
16:30 88 87 56 NW 1.9 2.2 - - - - - - 30.12 -
16:40 88 87 55 West 1.9 2.2 - - - - - - 30.12 -
17:00 87 87 56 NW 1.9 2.2 - - - - - - 30.12 -0.03
17:10 88 86 54 - 0.0 0.0 - - - - - - 30.12 -
17:40 88 86 54 ENE 1.9 2.2 - - - - - - 30.11 -
17:50 87 87 57 ENE 1.9 2.2 8 1.97 exactly 2.0 4 1.64 0.82 - 2.46 8 1.64 0.82 - 2.46 30.10 -
18:10 87 86 56 NE 1.9 2.2 - - - - - - 30.10 -
18:20 88 86 55 ENE 1.9 2.2 - - - - - - 30.10 -
18:30 88 86 55 ENE 1.9 2.2 - - - - - - 30.10 -
18:50 87 86 58 ENE 1.9 2.2 7 2.30 exactly 2.3 4 1.64 0.82 - 2.46 7 1.64 0.82 - 2.46 30.09 -
19:10 86 86 61 East 3.9 4.5 - - - - - - 30.10 -
19:20 86 87 61 East 3.9 4.5 - - - - - - 30.10 -
19:30 86 87 60 ESE 3.9 4.5 - - - - - - 30.10 -
19:40 86 86 59 East 3.9 4.5 - - - - - - 30.10 -
19:50 86 86 59 East 3.9 4.5 9 2.30 exactly 2.3 - - - 9 1.64 0.82 - 2.46 30.10 -
20:00 86 86 58 East 3.9 4.5 - - - - - - 30.11 -0.01
20:20 86 86 59 East 3.9 4.5 - - - - - - 30.10 -
20:40 86 86 58 ESE 3.9 4.5 - - - - - - 30.10 -
20:50 86 86 59 SE 5.8 6.7 6 2.30 exactly 2.3 4 1.64 0.82 - 2.46 6 1.64 0.82 - 2.46 30.10 -
21:10 86 86 62 ESE 7.8 8.9 - - - - - - 30.09 -
21:20 86 87 63 ESE 7.8 8.9 - - - - - - 30.09 -
21:40 85 86 64 ESE 7.8 8.9 - - - - - - 30.10 -
22:30 86 87 60 ESE 3.9 4.5 - - - - - - 30.11 -
22:40 86 87 59 ESE 5.8 6.7 - - - - - - 30.11 -
22:50 85 87 67 SE 5.8 6.7 6 2.30 exactly 2.3 - - - 6 1.64 0.82 - 2.46 30.11 -
23:00 85 87 67 SE 5.8 6.7 - - - - - - 30.11 -
23:10 85 86 67 SE 3.9 4.5 - - - - - - 30.12 -
23:20 85 86 68 SE 5.8 6.7 - - - - - - 30.11 -
23:30 85 86 67 SE 5.8 6.7 - - - - - - 30.11 -
23:40 85 86 65 ESE 5.8 6.7 - - - - - - 30.11 -
23:50 85
-
66 ESE 7.8 8.9 - - - - - - 30.11 -
00:00 85 86 66 SE 7.8 8.9 - - - - - - 30.11 +0.02
00:10 85 86 67 ESE 7.8 8.9 - - - - - - 30.11 -
00:20 85 86 67 SE 7.8 8.9 - - - - - - 30.11 -
00:30 85 86 67 SE 7.8 8.9 - - - - - - 30.12 -
00:40 85 86 66 SE 5.8 6.7 - - - - - - 30.12 -
00:50 85 86 65 SE 5.8 6.7 7 2.30 exactly 2.3 - - - 7 1.64 0.82 - 2.46 30.11 -
01:00 85 86 65 SE 5.8 6.7 - - - - - - 30.12 -
01:10 85 86 65 SE 7.8 8.9 - - - - - - 30.12 -
01:20 85 86 66 SE 7.8 8.9 - - - - - - 30.11 -
01:40 85 86 66 SE 9.7 11.2 - - - - - - 30.10 -
01:50 85 86 65 ESE 9.7 11.2 7 1.97 exactly 2.0 5 1.64 0.82 - 2.46 7 1.64 0.82 - 2.46 30.10 -
02:30 84 86 69 SE 7.8 8.9 - - - - - - 30.09 -
02:40 84 86 70 SE 7.8 8.9 - - - - - - 30.09 -
03:00 84 86 71 SE 7.8 8.9 - - - - - - 30.09 -0.02
03:10 84 86 70 SE 7.8 8.9 - - - - - - 30.09 -
03:20 84 86 71 SE 7.8 8.9 - - - - - - 30.09 -
03:30 84 86 70 SE 7.8 8.9 - - - - - - 30.08 -
03:40 84 86 70 SE 5.8 6.7 - - - - - - 30.08 -

Detailed Wave Spectra

Time Water Depth Wave Height Spectral Peak Period Average Wave Period Sampling Interval Wave Record
23:00 2920 ft 2.20 ft 10.0 sec 4.8 sec 0.6 sec 2400 sec
00:00 2920 ft 2.30 ft 7.1 sec 4.8 sec 0.6 sec 2400 sec
04:00 2920 ft 2.36 ft 9.1 sec 4.7 sec 0.6 sec 2400 sec
06:00 2920 ft 2.46 ft 9.1 sec 4.6 sec 0.6 sec 2400 sec
08:00 2920 ft 2.59 ft 9.1 sec 4.5 sec 0.6 sec 2400 sec
10:00 2920 ft 2.49 ft 9.1 sec 4.7 sec 0.6 sec 2400 sec
12:00 2920 ft 2.23 ft 8.3 sec 4.9 sec 0.6 sec 2400 sec
13:00 2920 ft 2.33 ft 9.1 sec 5.2 sec 0.6 sec 2400 sec
16:00 2920 ft 2.20 ft 7.1 sec 5.6 sec 0.6 sec 2400 sec
19:00 2920 ft 2.26 ft 7.1 sec 5.6 sec 0.6 sec 2400 sec
21:00 2920 ft 2.43 ft 6.3 sec 5.7 sec 0.6 sec 2400 sec
22:00 2920 ft 2.26 ft 6.7 sec 5.8 sec 0.6 sec 2400 sec
02:00 2920 ft 2.10 ft 7.1 sec 5.3 sec 0.6 sec 2400 sec